Location: Unspecified
(0.0000°N, 0.0000°E)
Time: 19:36:16
(UTC+00:00)

Vanguard 1 - Pass Details

Date: 22 April 2026
Orbit: 654 x 3817 km, 34.2° (Epoch: 18 May)

Event Time Altitude Azimuth Distance (km) Brightness Sun altitude
Rises 21:52:52 0° 278° (W) 6,620 14.8 -56.5°
Reaches altitude 10° 21:58:11 10° 290° (WNW) 6,034 14.4 -57.7°
Maximum altitude 22:13:59 27° 341° (NNW) 5,495 13.8 -61.3°
Drops below altitude 10° 22:31:56 10° 32° (NNE) 6,742 14.2 -65.2°
Sets 22:38:37 0° 44° (NE) 7,482 14.5 -66.6°
